When you browse on this site, cookies collect data to enhance your experience and personalize the content and advertising you see.
Visit our Privacy Policy to learn more. By continuing to use the site, you agree to this use of cookies and data.
  • In Spain
  • List of Countries
  • For 7 days
  • Water Temperature
  • Weather Map
  • Weather Widgets
  • user-avatar
    Login

    Hourly Weather Sabadell

    Today, 18 October, Friday

    Time Temperature Precipitation Wind Pressure Humidity
    00:00 +17°C° 0 mm 2 mps 743 mmHg 57%
    01:00 +17°C° 0 mm 2 mps 743 mmHg 58%
    02:00 +17°C° 0 mm 2 mps 743 mmHg 59%
    03:00 +17°C° 0 mm 2 mps 742 mmHg 60%
    04:00 +17°C° 0 mm 2 mps 743 mmHg 61%
    05:00 +17°C° 0 mm 3 mps 743 mmHg 62%
    06:00 +17°C° 0 mm 2 mps 743 mmHg 63%
    07:00 +18°C° 0 mm 2 mps 743 mmHg 61%
    08:00 +19°C° 0 mm 2 mps 743 mmHg 59%
    09:00 +20°C° 0 mm 2 mps 743 mmHg 57%
    10:00 +23°C° 0 mm 2 mps 743 mmHg 55%
    11:00 +24°C° 0 mm 3 mps 743 mmHg 53%
    12:00 +25°C° 0 mm 3 mps 743 mmHg 51%
    13:00 +25°C° 0 mm 3 mps 742 mmHg 50%
    14:00 +25°C° 0 mm 3 mps 742 mmHg 49%
    15:00 +26°C° 0 mm 3 mps 742 mmHg 48%
    16:00 +24°C° 0 mm 3 mps 742 mmHg 52%
    17:00 +23°C° 0 mm 2 mps 741 mmHg 56%
    18:00 +21°C° 0 mm 2 mps 741 mmHg 60%
    19:00 +21°C° 0 mm 2 mps 741 mmHg 61%
    20:00 +22°C° 0 mm 1 mps 741 mmHg 62%
    21:00 +21°C° 0 mm 1 mps 741 mmHg 63%
    22:00 +21°C° 0 mm 1 mps 741 mmHg 65%
    23:00 +21°C° 0 mm 1 mps 741 mmHg 66%

    Tomorrow, 19 October, Saturday

    Time Temperature Precipitation Wind Pressure Humidity
    00:00 +20°C° 0 mm 1 mps 740 mmHg 67%
    01:00 +20°C° 0 mm 1 mps 740 mmHg 69%
    02:00 +20°C° 0 mm 1 mps 740 mmHg 70%
    03:00 +18°C° 0 mm 2 mps 739 mmHg 71%
    04:00 +19°C° 0 mm 1 mps 739 mmHg 71%
    05:00 +19°C° 0 mm 1 mps 739 mmHg 71%
    06:00 +19°C° 0 mm 1 mps 739 mmHg 71%
    07:00 +19°C° 0 mm 2 mps 739 mmHg 65%
    08:00 +21°C° 0 mm 2 mps 740 mmHg 59%
    09:00 +23°C° 0 mm 2 mps 740 mmHg 52%
    10:00 +24°C° 0 mm 2 mps 739 mmHg 50%
    11:00 +25°C° 0 mm 3 mps 739 mmHg 48%
    12:00 +26°C° 0 mm 3 mps 739 mmHg 45%
    13:00 +26°C° 0.1 mm 4 mps 738 mmHg 49%
    14:00 +25°C° 0.1 mm 5 mps 738 mmHg 53%
    15:00 +25°C° 0.1 mm 5 mps 737 mmHg 57%
    16:00 +23°C° 0.1 mm 5 mps 737 mmHg 65%
    17:00 +22°C° 0.1 mm 4 mps 737 mmHg 74%
    18:00 +20°C° 0.1 mm 3 mps 737 mmHg 82%
    19:00 +20°C° 0.2 mm 3 mps 737 mmHg 82%
    20:00 +20°C° 0.2 mm 3 mps 737 mmHg 82%
    21:00 +20°C° 0.2 mm 3 mps 737 mmHg 82%
    22:00 +20°C° 0.2 mm 3 mps 737 mmHg 85%
    23:00 +19°C° 0.2 mm 2 mps 737 mmHg 87%

    Day after tomorrow, 20 October, Sunday

    Time Temperature Precipitation Wind Pressure Humidity
    00:00 +19°C° 0.2 mm 2 mps 737 mmHg 90%
    01:00 +19°C° 0.6 mm 2 mps 736 mmHg 90%
    02:00 +19°C° 0.6 mm 2 mps 736 mmHg 90%
    03:00 +19°C° 0.6 mm 3 mps 736 mmHg 89%
    04:00 +19°C° 0.7 mm 3 mps 736 mmHg 89%
    05:00 +19°C° 0.7 mm 3 mps 736 mmHg 89%
    06:00 +19°C° 0.7 mm 3 mps 736 mmHg 89%
    07:00 +19°C° 0.9 mm 3 mps 736 mmHg 85%
    08:00 +20°C° 0.9 mm 4 mps 736 mmHg 80%
    09:00 +20°C° 0.9 mm 4 mps 737 mmHg 75%
    10:00 +20°C° 0.3 mm 4 mps 737 mmHg 68%
    11:00 +20°C° 0.3 mm 5 mps 737 mmHg 60%
    12:00 +19°C° 0.3 mm 5 mps 737 mmHg 52%
    13:00 +20°C° 0 mm 5 mps 738 mmHg 47%
    14:00 +20°C° 0 mm 5 mps 738 mmHg 42%
    15:00 +21°C° 0 mm 5 mps 738 mmHg 38%
    16:00 +20°C° 0 mm 4 mps 739 mmHg 41%
    17:00 +19°C° 0 mm 4 mps 740 mmHg 45%
    18:00 +18°C° 0 mm 3 mps 740 mmHg 48%
    19:00 +17°C° 0 mm 3 mps 741 mmHg 49%
    20:00 +17°C° 0 mm 2 mps 742 mmHg 51%
    21:00 +16°C° 0 mm 2 mps 742 mmHg 52%
    22:00 +16°C° 0 mm 2 mps 742 mmHg 53%
    23:00 +16°C° 0 mm 2 mps 743 mmHg 53%

    21 October, Monday

    Time Temperature Precipitation Wind Pressure Humidity
    00:00 +16°C° 0 mm 2 mps 743 mmHg 54%
    01:00 +16°C° 0 mm 2 mps 743 mmHg 55%
    02:00 +14°C° 0 mm 3 mps 743 mmHg 57%
    03:00 +14°C° 0 mm 3 mps 743 mmHg 58%
    04:00 +14°C° 0.1 mm 3 mps 743 mmHg 59%
    05:00 +14°C° 0.1 mm 3 mps 743 mmHg 59%
    06:00 +14°C° 0.1 mm 3 mps 743 mmHg 59%
    07:00 +14°C° 0.4 mm 3 mps 744 mmHg 59%
    08:00 +16°C° 0.4 mm 3 mps 744 mmHg 59%
    09:00 +16°C° 0.4 mm 3 mps 744 mmHg 59%
    10:00 +16°C° 0.3 mm 3 mps 745 mmHg 63%
    11:00 +16°C° 0.3 mm 3 mps 745 mmHg 66%
    12:00 +14°C° 0.3 mm 3 mps 745 mmHg 70%
    13:00 +14°C° 0.2 mm 3 mps 745 mmHg 70%
    14:00 +14°C° 0.2 mm 3 mps 744 mmHg 70%
    15:00 +14°C° 0.2 mm 4 mps 744 mmHg 69%
    16:00 +14°C° 0.3 mm 4 mps 744 mmHg 71%
    17:00 +13°C° 0.3 mm 3 mps 745 mmHg 73%
    18:00 +13°C° 0.3 mm 3 mps 745 mmHg 75%
    19:00 +13°C° 0.3 mm 3 mps 745 mmHg 76%
    20:00 +13°C° 0.3 mm 3 mps 745 mmHg 76%
    21:00 +13°C° 0.3 mm 3 mps 745 mmHg 76%
    22:00 +13°C° 0.3 mm 3 mps 745 mmHg 77%
    23:00 +13°C° 0.3 mm 3 mps 745 mmHg 77%

    22 October, Tuesday

    Time Temperature Precipitation Wind Pressure Humidity
    00:00 +13°C° 0.3 mm 4 mps 745 mmHg 78%
    01:00 +13°C° 0.6 mm 4 mps 745 mmHg 79%
    02:00 +13°C° 0.6 mm 4 mps 744 mmHg 80%
    03:00 +12°C° 0.6 mm 4 mps 744 mmHg 82%
    04:00 +12°C° 1.1 mm 3 mps 744 mmHg 83%
    05:00 +12°C° 1.1 mm 3 mps 743 mmHg 84%
    06:00 +13°C° 1.1 mm 2 mps 743 mmHg 86%
    07:00 +13°C° 2.2 mm 3 mps 743 mmHg 85%
    08:00 +13°C° 2.2 mm 3 mps 742 mmHg 85%
    09:00 +14°C° 2.2 mm 3 mps 742 mmHg 85%
    10:00 +14°C° 3.8 mm 3 mps 742 mmHg 86%
    11:00 +13°C° 3.8 mm 3 mps 742 mmHg 87%
    12:00 +13°C° 3.8 mm 3 mps 742 mmHg 88%
    13:00 +14°C° 0.9 mm 3 mps 741 mmHg 85%
    14:00 +14°C° 0.9 mm 3 mps 741 mmHg 81%
    15:00 +14°C° 0.9 mm 3 mps 740 mmHg 78%
    16:00 +14°C° 0.1 mm 3 mps 740 mmHg 77%
    17:00 +14°C° 0.1 mm 3 mps 740 mmHg 76%
    18:00 +16°C° 0.1 mm 3 mps 740 mmHg 76%
    19:00 +16°C° 0 mm 3 mps 740 mmHg 76%
    20:00 +16°C° 0 mm 3 mps 740 mmHg 77%
    21:00 +16°C° 0 mm 3 mps 739 mmHg 78%
    22:00 +15°C° 1.6 mm 4 mps 739 mmHg 82%
    23:00 +15°C° 1.6 mm 5 mps 739 mmHg 87%

    23 October, Wednesday

    Time Temperature Precipitation Wind Pressure Humidity
    00:00 +15°C° 1.6 mm 6 mps 738 mmHg 91%
    01:00 +15°C° 2.1 mm 6 mps 737 mmHg 89%
    02:00 +16°C° 2.1 mm 6 mps 736 mmHg 86%
    03:00 +16°C° 2.1 mm 7 mps 735 mmHg 84%
    04:00 +16°C° 1.9 mm 9 mps 735 mmHg 84%
    05:00 +17°C° 1.9 mm 10 mps 734 mmHg 84%
    06:00 +17°C° 1.9 mm 12 mps 733 mmHg 85%
    07:00 +18°C° 4.2 mm 11 mps 733 mmHg 86%
    08:00 +18°C° 4.2 mm 11 mps 733 mmHg 88%
    09:00 +18°C° 4.2 mm 10 mps 733 mmHg 89%
    10:00 +18°C° 3.8 mm 11 mps 733 mmHg 89%
    11:00 +18°C° 3.8 mm 11 mps 733 mmHg 89%
    12:00 +18°C° 3.8 mm 11 mps 732 mmHg 89%
    13:00 +18°C° 3.4 mm 10 mps 732 mmHg 89%
    14:00 +17°C° 3.4 mm 8 mps 732 mmHg 88%
    15:00 +17°C° 3.4 mm 7 mps 732 mmHg 87%
    16:00 +17°C° 2.9 mm 6 mps 732 mmHg 85%
    17:00 +17°C° 2.9 mm 5 mps 732 mmHg 83%
    18:00 +17°C° 2.9 mm 4 mps 732 mmHg 81%
    19:00 +17°C° 1.6 mm 4 mps 733 mmHg 81%
    20:00 +15°C° 1.6 mm 4 mps 733 mmHg 80%
    21:00 +16°C° 1.6 mm 3 mps 734 mmHg 80%
    22:00 +15°C° 0.8 mm 4 mps 734 mmHg 81%
    23:00 +15°C° 0.8 mm 4 mps 734 mmHg 82%
    Show more